Whiting Fld NAS, FL

7:02 AM CST on November 12, 2019 (GMT -0600)
Whiting Field Naval Air Station (North)

Weather History for KNSE - September, 2019

Change the Weather History Date:

Tuesday, September 10, 2019

  Actual Average Record
Temperature  
Mean Temperature 80 °F -  
Max Temperature 93 °F 85 °F 93 °F (2007)
Min Temperature 66 °F 67 °F 60 °F (2011)
Cooling Degree Days 14    
Growing Degree Days 30 (Base 50)    
Moisture  
Dew Point 71 °F    
Average Humidity 77    
Maximum Humidity 100    
Minimum Humidity 46    
Precipitation  
Precipitation 0.00 in - - ()
Sea Level Pressure  
Sea Level Pressure 30.12 in    
Wind  
Wind Speed 3 mph (ESE)    
Max Wind Speed 9 mph    
Max Gust Speed 18 mph    
Visibility 9 miles    
Events      
Averages and records for this station are not official NWS values.
T = Trace of Precipitation, MM = Missing Value Source: NWS Daily Summary

Daily Weather History Graph

Daily Weather History Graph

Search for Another Location

Airport or City:

Astronomy

Sep. 10, 2019 Rise Set
Actual Time 6:29 AM CDT 7:00 PM CDT
Civil Twilight 6:05 AM CDT 7:24 PM CDT
Nautical Twilight 5:36 AM CDT 7:52 PM CDT
Astronomical Twilight 5:07 AM CDT 8:21 PM CDT
Moon 5:20 PM CDT (9/10) 3:12 AM CDT (9/10)
Length of Visible Light 13h 19m
Length of Day
12h 30m
Waxing Gibbous, 89% of the Moon is Illuminated
Sep 10
Waxing Gibbous
Sep 13
Full
Sep 21
Last Quarter
Sep 28
New
Oct 5
First Quarter

Hourly Weather History & Observations

Time (CDT) Temp. Heat Index Dew Point Humidity Pressure Visibility Wind Dir Wind Speed Gust Speed Precip Events Conditions
12:56 AM 71.1 °F - 71.1 °F 100% 30.09 in 9.0 mi Calm Calm - N/A   Clear
1:56 AM 70.0 °F - 70.0 °F 100% 30.08 in 7.0 mi Calm Calm - N/A   Clear
2:56 AM 70.0 °F - 70.0 °F 100% 30.08 in 7.0 mi Calm Calm - N/A   Clear
3:56 AM 69.1 °F - 69.1 °F 100% 30.08 in 5.0 mi Calm Calm - N/A   Clear
4:56 AM 68.0 °F - 68.0 °F 100% 30.09 in 5.0 mi Calm Calm - N/A   Clear
5:56 AM 66.9 °F - 66.9 °F 100% 30.10 in 5.0 mi NNE 3.5 mph - N/A   Partly Cloudy
6:56 AM 68.0 °F - 68.0 °F 100% 30.13 in 5.0 mi Calm Calm - N/A   Scattered Clouds
7:56 AM 75.9 °F - 73.9 °F 94% 30.14 in 10.0 mi ENE 3.5 mph - N/A   Scattered Clouds
8:56 AM 81.0 °F 87.3 °F 75.9 °F 85% 30.15 in 10.0 mi ENE 5.8 mph - N/A   Scattered Clouds
9:56 AM 86.0 °F 96.0 °F 75.9 °F 72% 30.16 in 10.0 mi ESE 8.1 mph - N/A   Scattered Clouds
10:56 AM 89.1 °F 98.0 °F 73.9 °F 61% 30.15 in 10.0 mi East 9.2 mph - N/A   Scattered Clouds
11:56 AM 89.1 °F 97.0 °F 73.0 °F 59% 30.14 in 10.0 mi Calm Calm - N/A   Scattered Clouds
12:56 PM 93.9 °F 100.3 °F 70.0 °F 46% 30.14 in 10.0 mi SE 8.1 mph 18.4 mph N/A   Scattered Clouds
1:56 PM 93.0 °F 100.1 °F 71.1 °F 49% 30.12 in 10.0 mi SSW 6.9 mph - N/A   Scattered Clouds
2:56 PM 93.9 °F 100.3 °F 70.0 °F 46% 30.10 in 10.0 mi South 8.1 mph - N/A   Scattered Clouds
3:56 PM 93.0 °F 99.0 °F 70.0 °F 47% 30.10 in 10.0 mi SSW 8.1 mph - N/A   Mostly Cloudy
4:56 PM 91.9 °F 96.9 °F 69.1 °F 47% 30.09 in 10.0 mi South 5.8 mph - N/A   Mostly Cloudy
5:56 PM 90.0 °F 94.5 °F 69.1 °F 50% 30.08 in 10.0 mi SSE 4.6 mph - N/A   Mostly Cloudy
6:56 PM 86.0 °F 90.1 °F 69.1 °F 57% 30.09 in 10.0 mi South 8.1 mph - N/A   Mostly Cloudy
7:56 PM 82.0 °F 86.7 °F 72.0 °F 71% 30.10 in 10.0 mi Calm Calm - N/A   Scattered Clouds
8:56 PM 80.1 °F 84.5 °F 73.9 °F 81% 30.12 in 10.0 mi SE 5.8 mph - N/A   Scattered Clouds
9:56 PM 77.0 °F - 73.0 °F 88% 30.14 in 10.0 mi North 3.5 mph - N/A   Partly Cloudy
10:45 PM 75.0 °F - 73.0 °F 94% 30.18 in 10.0 mi NNE 3.5 mph - N/A   Clear
10:56 PM 73.9 °F - 72.0 °F 93% 30.13 in 10.0 mi Calm Calm - N/A   Clear
11:56 PM 73.0 °F - 72.0 °F 96% 30.12 in 10.0 mi NNE 3.5 mph - N/A   Clear